Back to catalog

CZ-6A DEB

AlivePO
NORAD 60865·DEBRIS·🇨🇳 China

Launched Aug 6, 2024 from Taiyuan Satellite Launch Center

Loading…

Next Passes (next 24 hours)

TLE

FreshSource: Space-Track

Epoch: Sep 14, 2026, 11:07 UTC

1 60865U 24140JU  26257.46365463  .00000592  00000-0  14654-3 0  9994
2 60865  88.9754 258.5672 0086695 292.2031  66.9994 14.48532837109981

Track CZ-6A DEB in real time with AllMySat

Download on the App Store